Regional Weather Roundup
Issued by NWS

Home | Current Version | Previous Version | Graphics & Text | Print | Product List | Glossary On
Versions: 1 2 3 4 5 6 7 8 9 10 11 12 13 14 15 16 17 18 19 20 21 22 23 24 25 26 27 28 29 30 31 32 33 34 35 36 37 38 39 40 41 42 43 44 45 46 47 48 49 50
000
ASUS43 KDTX 210510
RWRMI
MICHIGAN HOURLY REGIONAL WEATHER ROUNDUP
NATIONAL WEATHER SERVICE DETROIT/PONTIAC MI
1200 AM EST SAT JAN 21 2017

NOTE: "FAIR" INDICATES FEW OR NO CLOUDS BELOW 12,000 FEET WITH NO
SIGNIFICANT WEATHER AND/OR OBSTRUCTION TO VISIBILITY.

MIZ047>049-052>055-059>063-066>070-074>076-081>083-210600-
SOUTHEAST LOWER MICHIGAN

CITY           SKY/WX    TMP DP  RH WIND       PRES   REMARKS
ADRIAN         FOG       41  41 100 S3        29.74S VSB 1/4
ALMA           FOG       33  33  99 E3        29.74R VSB 1/2
ANN ARBOR      FOG       39  39 100 CALM      29.74S VSB 1/4
BAD AXE        CLOUDY    34  34 100 W5        29.75S FOG     WCI  30
CARO           FOG       34  34  99 CALM      29.74S VSB 1/2
DETROIT CITY   CLOUDY    42  42 100 CALM      29.76S FOG
DETROIT        FOG       41  41 100 S3        29.75S VSB 1/8
FLINT          FOG       37  37 100 CALM      29.74S VSB 3/4
GROSSE ILE     FOG       38  37  99 S3        29.75S VSB<1/4
HILLSDALE      FOG       41  41 100 SE5       29.71F VSB 3/4
HOWELL         FOG       39  38  97 S3        29.72S VSB 3/4

CITY           SKY/WX    TMP DP  RH WIND       PRES   REMARKS
JACKSON        CLOUDY    43  41  93 S7        29.71F
LAMBERTVILLE   CLOUDY    44  43  95 S5        29.75S FOG
LANSING        FOG       38  36  92 E3        29.72F VSB 1/4
LAPEER         FOG       36  36 100 CALM      29.75R VSB 1/2
MASON          FOG       38  38 100 S3        29.71S VSB 1/2
MONROE         FOG       37  37 100 CALM      29.74S VSB 1/4
MT. CLEMENS    CLOUDY    37  37 100 CALM      29.74S FOG
PONTIAC        FOG       40  38  93 CALM      29.73R VSB 1/8
PORT HOPE        N/A     35  34  96 SW5       29.73S WCI  31
PORT HURON     FOG       36  36 100 CALM      29.76R VSB 3/4
TRI CITIES     FOG       34  34 100 CALM      29.75S VSB 1/4
MIDLAND        CLOUDY    34  33  96 CALM      29.74R FOG
TROY           FOG       41  40  95 CALM      29.76S VSB 1
SAGINAW HB     FOG       34  32  93 CALM      29.74S VSB 3/4
$$
MIZ043>046-050>051-056>058-064>065-071>073-077>080-210600-
SOUTHWEST LOWER MICHIGAN

CITY           SKY/WX    TMP DP  RH WIND       PRES   REMARKS
BATTLE CREEK   CLOUDY    43  43 100 S6        29.70F FOG
BENTON HARBOR  CLOUDY    46  44  93 SE7       29.67F FOG
BIG RAPIDS     FOG       32  32  99 CALM      29.70S VSB 1/2
COLDWATER      CLOUDY    45  45 100 S5        29.71S FOG
FREMONT        FOG       34  34 100 E5        29.69F VSB 1   WCI  30
HOLLAND        CLOUDY    39  38  96 E5        29.68F
GRAND RAPIDS   FOG       37  35  92 E5        29.69F VSB 1/4 WCI  33
IONIA          FOG       35  35 100 E6        29.70F VSB 1/4 WCI  29
KALAMAZOO      CLOUDY    44  42  93 S6        29.70S FOG
LUDINGTON      CLOUDY    34  34 100 E3        29.69F FOG
MARSHALL       CLOUDY    43  43  99 CALM      29.71R FOG
MOUNT PLEASANT FOG       33  33  99 CALM      29.73R VSB 1/2
MUSKEGON       FOG       37  36  96 E6        29.68F VSB 1/2 WCI  32
SOUTH HAVEN    CLOUDY    44  44  99 SE3       29.67F FOG
$$
MIZ016>042-210600-
NORTHERN LOWER MICHIGAN

CITY           SKY/WX    TMP DP  RH WIND       PRES   REMARKS
ALPENA         FOG       33  32  96 CALM      29.73R VSB 1/4
BEAVER ISLAND  CLOUDY    34  34 100 SE5       29.71R FOG     WCI  30
BELLAIRE       CLOUDY    35  34  96 S3        29.72S FOG
CADILLAC       FOG       32  31  96 S3        29.69S VSB 1/2
CHARLEVOIX     CLOUDY    34  34 100 CALM      29.74R FOG
FRANKFORT      CLOUDY    35  34  98 SE5       29.71R WCI  31
GAYLORD        CLOUDY    35  31  85 S5        29.69R FOG     WCI  31
GRAYLING       CLOUDY    34  33  98 CALM      29.72R FOG
HARBOR SPRINGS CLOUDY    33  33 100 CALM      29.71R FOG
HOUGHTON LAKE  FOG       33  32  96 S3        29.71S VSB 1/4
MANISTEE       CLOUDY    34  33  96 E5        29.71R WCI  30
OSCODA         FOG       34  34  98 CALM      29.73S VSB 1/2
PELLSTON       FOG       33  32  96 SE3       29.71S VSB 1/2
ROGERS CITY    FOG       33  32  96 CALM      29.72S VSB 3/4
TRAVERSE CITY  CLOUDY    37  33  85 CALM      29.71R
$$
MIZ007>008-015-210600-
EASTERN UPPER MICHIGAN

CITY           SKY/WX    TMP DP  RH WIND       PRES   REMARKS
KINROSS        FLURRIES  32  32 100 E6        29.71F WCI  26
MACKINAC ISLAN CLOUDY    33  33 100 SE3       29.70S FOG
NEWBERRY       MIX PCPN  32  31  97 CALM      29.68F VSB 1
S. S. MARIE    LGT RAIN  33  32  96 E5        29.71S FOG     WCI  29
MUNISING         N/A     34  33  96 CALM      29.68S
$$
MIZ004>006-011>014-085-210600-
CENTRAL UPPER MICHIGAN

CITY           SKY/WX    TMP DP  RH WIND       PRES   REMARKS
MANISTIQUE     CLOUDY    32  32  99 SE6       29.70R FOG     WCI  26
ESCANABA       CLOUDY    34  32  93 CALM      29.70S FOG
SAWYER-GWINN   CLOUDY    32  32 100 S5        29.67R WCI  27
$$
MIZ001>003-009>011-084-210600-
WESTERN UPPER MICHIGAN

CITY           SKY/WX    TMP DP  RH WIND       PRES   REMARKS
IRON MOUNTAIN  FOG       33  31  92 SE6       29.66R VSB 1/4 WCI  28
HOUGHTON       LGT RAIN  34  32  92 E5        29.63S FOG     WCI  30
COPPER HARBOR    N/A     34  33  96 S3        29.64
IRONWOOD       CLOUDY    35  34  96 SE6       29.62R WCI  30
$$

ABBREVIATIONS USED IN REMARKS
   TC - TEMPERATURE IN CELSIUS
  WCI - WIND CHILL INDEX
   HX - HEAT INDEX
  VSB - VISIBILITY





USA.gov is the U.S. government's official web portal to all federal, state and local government web resources and services.